EFTU Weather Reports


time (UTC)temp
C
wind
direction
speed
KPH
gust
KPH
rain 1hr
cm
rain 24hr
cm
rain mn
cm
humidity
%
barometer
mb
20260507112727 12 311 12.9 24.1 0.00 0.00 0.00 18 1016.3
20260507110728 12 263 6.4 14.5 0.00 0.00 0.00 19 1016.2
20260507102728 11 277 11.3 22.5 0.00 0.00 0.00 21 1016.2
20260507100727 11 307 12.9 20.9 0.00 0.00 0.00 21 1016.2
20260507094728 11 227 8.0 16.1 0.00 0.00 0.00 21 1016.1
20260507090728 11 283 9.7 19.3 0.00 0.00 0.00 21 1016.3
20260507084727 10 270 9.7 14.5 0.00 0.00 0.00 23 1016.3
20260507082728 10 280 4.8 12.9 0.00 0.00 0.00 23 1016.3
20260507080727 10 156 6.4 14.5 0.00 0.00 0.00 22 1016.3
20260507074727 9 254 3.2 6.4 0.00 0.00 0.00 22 1016.4
20260507072727 9 105 4.8 11.3 0.00 0.00 0.00 24 1016.5
20260507070727 9 60 8.0 12.9 0.00 0.00 0.00 27 1016.4
20260507064727 8 111 9.7 14.5 0.00 0.00 0.00 26 1016.5
20260507062727 7 95 11.3 14.5 0.00 0.00 0.00 27 1016.4
20260507060727 7 102 11.3 14.5 0.00 0.00 0.00 34 1016.4
20260507055051 6 93 11.3 16.1 0.00 0.00 0.00 35 1016.4
20260507052727 5 79 9.7 14.5 0.00 0.00 0.00 38 1016.3
20260507050726 4 94 9.7 14.5 0.00 0.00 0.00 43 1016.3
20260507044727 3 91 6.4 8.0 0.00 0.00 0.00 50 1016.3
20260507042726 1 105 3.2 6.4 0.00 0.00 0.00 55 1016.4
20260507040728 0 73 1.6 3.2 0.00 0.00 0.00 64 1016.4
20260507034727 -2 77 1.6 3.2 0.00 0.00 0.00 75 1016.4
20260507032727 -3 100 3.2 4.8 0.00 0.00 0.00 70 1016.3
20260507030728 -3 53 3.2 3.2 0.00 0.00 0.00 72 1016.3
20260507024726 -4 23 3.2 4.8 0.00 0.00 0.00 73 1016.3
20260507023052 -4 97 1.6 3.2 0.00 0.00 0.00 73 1016.2
20260507020726 -4 108 3.2 3.2 0.00 0.00 0.00 75 1016.2
20260507014726 -3 52 3.2 3.2 0.00 0.00 0.00 72 1016.1
20260507012726 -4 22 3.2 6.4 0.00 0.00 0.00 76 1016.0
20260507010726 -4 9 3.2 4.8 0.00 0.00 0.00 75 1016.0
20260507004726 -4 21 3.2 3.2 0.00 0.00 0.00 78 1015.8
20260507002727 -3 25 3.2 4.8 0.00 0.00 0.00 78 1015.7
20260507000726 -3 101 1.6 3.2 0.00 0.00 0.00 68 1015.6
20260506234727 -3 130 3.2 3.2 0.00 0.00 0.00 71 1015.5
20260506232726 -3 59 1.6 3.2 0.00 0.00 0.00 71 1015.4
20260506230727 -3 100 3.2 4.8 0.00 0.00 0.00 74 1015.4
20260506224725 -2 111 3.2 4.8 0.00 0.00 0.00 68 1015.4
20260506222726 -2 123 1.6 3.2 0.00 0.00 0.00 64 1015.3
20260506220726 -2 67 1.6 3.2 0.00 0.00 0.00 64 1015.3
20260506214726 -2 351 3.2 6.4 0.00 0.00 0.00 61 1015.2
20260506212726 -2 345 1.6 3.2 0.00 0.00 0.00 62 1015.3
20260506210726 -2 41 3.2 3.2 0.00 0.00 0.00 72 1015.1
20260506202725 0 129 1.6 3.2 0.00 0.00 0.00 50 1014.9
20260506200726 0 86 1.6 1.6 0.00 0.00 0.00 52 1015.0
20260506194725 1 317 1.6 3.2 0.00 0.00 0.00 46 1014.9
20260506192725 2 316 4.8 8.0 0.00 0.00 0.00 42 1015.0
20260506190725 5 312 6.4 9.7 0.00 0.00 0.00 32 1014.8
20260506184725 5 289 6.4 8.0 0.00 0.00 0.00 30 1014.7
20260506182726 6 289 6.4 8.0 0.00 0.00 0.00 26 1014.7
20260506180725 7 289 8.0 9.7 0.00 0.00 0.00 24 1014.7
20260506174726 7 280 9.7 14.5 0.00 0.00 0.00 26 1014.6
20260506172724 8 287 11.3 14.5 0.00 0.00 0.00 24 1014.5
20260506170725 8 291 11.3 16.1 0.00 0.00 0.00 23 1014.5
20260506164724 8 302 11.3 19.3 0.00 0.00 0.00 23 1014.5
20260506162725 8 311 12.9 22.5 0.00 0.00 0.00 22 1014.4
20260506160724 10 285 12.9 20.9 0.00 0.00 0.00 21 1014.3
20260506154725 9 302 16.1 27.4 0.00 0.00 0.00 22 1014.3
20260506152725 10 309 9.7 19.3 0.00 0.00 0.00 22 1014.3
20260506150724 9 297 12.9 22.5 0.00 0.00 0.00 21 1014.3
20260506144724 10 297 16.1 25.7 0.00 0.00 0.00 21 1014.4
20260506142724 10 305 9.7 30.6 0.00 0.00 0.00 22 1014.3
20260506140724 10 279 14.5 24.1 0.00 0.00 0.00 22 1014.4
20260506134724 10 280 14.5 25.7 0.00 0.00 0.00 20 1014.4
20260506132724 10 312 16.1 29.0 0.00 0.00 0.00 21 1014.5
20260506130723 10 276 16.1 22.5 0.00 0.00 0.00 21 1014.4
20260506124723 10 296 20.9 32.2 0.00 0.00 0.00 22 1014.3
20260506122723 9 318 14.5 25.7 0.00 0.00 0.00 22 1014.5
20260506120724 9 312 14.5 30.6 0.00 0.00 0.00 22 1014.3
20260506114724 9 324 20.9 33.8 0.00 0.00 0.00 22 1014.3